Location: Munkebjergskolens Observatorium
(55.3864°N, 10.3987°E)
Time: 18:25:06
(UTC+02:00)

NOAA 18 - Pass Details

Date: 28 March 2023
Orbit: 838 x 860 km, 98.9° (Epoch: 02 June)

Event Time Altitude Azimuth Distance (km) Brightness Sun altitude
Exits shadow 23:56:59 33° 247° (WSW) 1,428 6.3 -28.8°
Maximum altitude 23:57:49 34° 265° (W) 1,387 6.4 -28.9°
Drops below altitude 10° 00:02:52 10° 330° (NNW) 2,512 8.6 -29.1°
Sets 00:05:29 0° 340° (NNW) 3,453 9.6 -29.3°
